SCP
-0 -0 0 0 0 -0 -0 0 0 0 0 0 0 0 0 0 0 0 0 -0 -0 -0 -0 -0 -0 -0 -0 -0 -0 -0 -0 0 -0 0 0 -0 -0 -0 -0 -0 -0 -0 -0 -0 -0 -0 -0 -0 0
0 0 0 0 0 -0 0 0 0 0 0 0 0 0 0 0 0 0 -0 0 -0 -0 0 -0 -0 -0 -0 -0 -0 -0 -0 0 0 0 0 0 0 -0 -0 -0 -0 -0 -0 -0 -0 -0 -0 -0 0
0 0 0 -0 0 0 0 0 0 0 0 0 0 0 0 0 -0 0 0 -0 -0 -0 -0 -0 -0 -0 -0 -0 -0 -0 -0 -0 0 0 0 0 0 0 0 -0 -0 -0 -0 -0 -0 -0 -0 -0 -0
0 0 -0 -0 0 0 0 0 0 0 0 0 0 0 0 0 -0 -0 -0 -0 -0 -0 -0 -0 -0 -0 -0 -0 -0 -0 -0 0 0 0 0 0 0 0 0 -0 -0 -0 -0 -0 -0 -0 -0 -0 -0
0 0 -0 -0 0 0 0 0 0 0 0 0 0 0 0 -0 0 -0 -0 -0 -0 -0 0 -0 -0 -0 -0 -0 -0 -0 -0 0 0 0 0 0 0 0 0 0 0 0 0 0 -0 -0 -0 -0 -0
-0 -0 0 -0 -0 0 0 0 0 0 0 0 0 0 0 0 -0 0 -0 -0 -0 -0 -0 -0 -0 -0 -0 -0 -0 -0 0 0 0 0 0 0 0 0 0 0 0 0 0 0 0 -0 -0 0 -0
-0 -0 -0 -0 0 0 0 0 0 0 0 0 0 0 0 0 0 0 0 0 0 0 -0 -0 -0 -0 -0 -0 -0 0 0 0 0 0 0 0 0 0 0 0 0 0 0 0 0 0 0 0 0
0 0 0 -0 -0 0 0 0 0 0 0 0 0 0 0 0 0 0 0 0 0 0 0 0 0 0 0 0 0 0 0 0 0 0 0 1 0 0 0 0 0 0 0 0 0 0 0 0 0
0 0 0 0 0 0 0 0 0 0 0 0 0 0 0 0 0 0 0 0 0 0 0 0 0 0 0 0 0 0 0 0 0 0 0 0 0 0 0 0 0 0 0 1 0 0 0 0 0
0 0 0 0 0 0 0 0 0 0 0 0 0 0 0 0 0 0 0 0 0 0 0 0 0 0 0 0 0 1 0 0 0 0 0 0 0 0 0 0 0 1 0 0 0 0 0 0 0
0 0 0 -0 0 0 0 0 0 0 0 0 0 0 0 0 0 0 0 0 0 0 0 0 0 0 0 0 0 1 0 0 0 0 0 0 0 0 0 0 0 0 0 0 0 0 0 0 0
0 0 0 0 0 0 0 0 0 0 0 0 0 0 0 0 0 0 0 0 0 0 0 0 0 0 0 0 1 1 0 0 0 0 0 0 0 0 0 0 0 0 0 0 0 0 0 0 0
0 -0 0 0 0 0 0 0 0 0 0 0 0 0 0 0 0 0 0 0 0 0 0 0 0 0 -0 0 1 1 0 0 0 0 0 0 0 0 0 0 0 0 0 0 0 0 0 0 0
-0 -0 0 0 0 0 0 0 0 0 0 0 0 0 0 0 0 0 0 0 0 0 0 0 0 0 -0 0 0 1 0 0 0 0 0 0 0 0 0 0 0 0 0 0 0 0 0 0 0
0 -0 0 -0 0 0 0 0 0 0 0 0 0 0 0 1 0 0 0 0 0 0 0 0 0 0 0 0 0 0 0 0 0 0 0 0 0 0 0 0 0 0 0 0 0 0 0 0 0
0 -0 0 -0 0 0 0 0 -0 0 0 0 0 0 1 0 0 0 0 0 0 0 0 -0 0 0 -0 0 0 0 0 0 0 0 0 0 0 0 0 0 0 0 0 0 0 0 0 0 0
-0 -0 0 -0 -0 0 0 0 0 0 0 0 0 0 0 0 0 0 1 0 0 0 0 0 -0 0 -0 0 0 0 0 0 0 0 0 0 0 0 0 0 0 0 0 0 0 0 0 0 0
-0 -0 -0 -0 -0 -0 0 0 0 0 0 0 0 0 0 0 0 0 1 1 0 0 0 0 0 0 0 0 0 0 0 0 0 0 0 0 0 0 0 0 0 0 0 0 0 0 0 0 0
0 0 0 -0 0 0 0 0 0 0 -0 -0 0 0 0 0 0 0 1 0 0 0 0 0 0 0 0 0 1 0 0 0 0 0 0 0 0 0 0 0 0 0 0 0 0 0 0 0 0
0 0 0 0 0 0 0 0 0 -0 0 0 0 0 0 0 0 0 0 0 -0 -0 -0 0 0 0 0 0 1 0 0 0 0 0 0 0 0 0 0 0 0 0 0 0 0 0 0 0 0
0 0 0 0 0 0 0 0 0 0 0 -0 0 0 0 0 0 0 0 -0 -0 0 0 -0 -0 -0 0 0 1 0 0 0 0 0 0 0 0 0 0 0 0 0 0 0 0 0 0 0 0
0 -0 -0 0 0 0 0 0 0 0 0 0 0 0 0 0 0 0 0 0 0 0 0 0 0 -0 -0 0 0 0 0 0 0 0 0 0 0 0 0 0 0 0 0 0 0 0 0 0 0
0 -0 0 0 0 0 0 0 0 0 0 0 0 0 0 0 0 0 0 0 0 0 0 0 0 0 0 0 0 0 0 0 0 0 0 0 0 0 0 0 0 0 0 0 0 0 0 0 0
0 0 0 0 0 0 0 0 0 0 0 0 0 0 0 0 -0 0 0 0 0 0 0 0 0 0 0 0 0 0 0 0 0 0 0 0 0 0 0 0 0 0 0 0 0 0 0 0 0
0 0 0 0 0 0 0 0 0 0 0 0 0 0 -0 -0 -0 0 0 0 0 0 0 0 0 0 0 0 0 0 0 0 0 0 0 0 0 0 0 0 0 0 0 0 0 0 0 0 0
0 -0 0 0 0 0 0 0 0 0 0 0 0 0 0 0 0 0 0 0 0 0 0 0 0 0 0 0 0 0 0 0 0 0 0 0 0 0 0 0 0 0 0 0 0 0 0 0 0
0 0 0 0 0 0 0 0 0 0 0 0 0 0 0 0 0 0 0 0 0 0 0 0 0 0 0 0 0 0 0 0 0 0 0 0 0 0 0 0 0 0 0 0 0 0 0 0 0
0 0 0 0 0 0 0 0 0 0 0 0 0 0 0 0 0 0 0 0 0 0 0 0 0 0 0 0 0 0 0 0 0 0 0 0 0 0 0 0 0 0 0 0 0 0 0 0 0
0 0 0 0 0 0 0 0 0 0 0 0 0 0 0 0 0 0 0 0 0 0 0 0 0 0 0 0 0 0 0 0 0 0 0 0 0 0 0 0 0 0 0 0 0 0 0 0 0
0 0 0 0 0 0 0 0 0 0 0 -0 0 0 0 0 0 0 0 0 0 0 0 0 0 0 0 0 0 0 0 0 0 0 0 0 0 0 0 0 0 0 0 0 0 0 0 0 0
Wind_Speed_500mb
13 14 17 7 8 10 7 9 2 9 6 8 38 8 15 4 8 6 30 44 36 42 40 35 29 25 22 19 16 16 15 16 17 20 22 25 26 28 28 29 29 30 32 35 36 36 35 29 25
19 11 11 7 10 8 9 10 7 5 11 26 19 17 7 4 7 19 44 43 39 37 34 32 29 25 22 18 15 13 14 15 16 18 20 22 23 23 24 25 27 30 33 34 38 39 37 32 28
16 19 6 9 7 2 5 4 11 9 25 9 6 13 5 8 11 44 39 31 41 34 30 29 27 24 20 16 13 12 11 11 13 14 16 18 18 19 20 21 24 28 30 29 33 39 38 34 31
12 3 13 10 5 7 4 6 9 14 7 5 14 11 7 4 38 27 35 29 34 32 28 26 23 21 17 13 11 10 10 10 11 11 13 15 15 13 15 18 19 21 24 25 24 31 34 27 21
8 8 10 7 6 7 3 27 30 14 13 8 12 5 23 10 15 32 30 25 25 26 22 21 20 18 15 13 10 11 10 10 11 11 13 14 14 10 13 11 14 14 15 17 20 23 28 32 24
3 8 8 2 4 9 11 46 32 12 21 14 16 13 11 13 26 33 25 22 26 24 20 22 20 18 17 15 14 14 14 13 14 16 19 21 16 13 13 7 6 7 8 11 15 18 29 32 37
10 8 9 7 6 10 1 30 11 20 24 13 38 8 11 28 24 26 24 25 29 21 10 15 19 19 20 19 17 15 15 16 18 21 24 25 20 16 12 8 4 1 7 11 16 20 30 35 40
5 10 12 10 8 9 4 17 27 32 22 31 28 13 14 38 32 28 25 26 27 21 17 7 17 17 20 20 21 20 20 19 19 17 20 25 22 17 17 13 9 7 8 13 16 23 31 38 45
11 8 7 14 15 13 23 16 37 18 24 22 23 21 35 40 38 34 33 37 40 32 27 18 18 20 21 25 27 25 21 17 15 18 22 24 24 28 26 23 18 14 15 17 21 30 35 42 48
11 5 18 17 17 16 27 21 33 12 35 7 25 31 46 45 41 36 36 40 42 40 34 29 22 27 26 30 31 28 22 20 15 26 28 25 33 33 31 29 24 23 20 24 30 33 43 51 49
11 13 14 20 51 44 27 17 20 32 8 29 56 48 51 53 57 49 46 37 39 43 42 35 32 32 34 34 33 32 23 26 21 24 29 38 33 32 27 23 21 20 29 28 33 37 50 48 49
4 29 21 16 44 44 23 22 13 38 27 50 54 47 56 61 63 58 52 47 50 51 52 44 47 37 33 34 27 25 26 27 27 27 33 34 30 28 26 27 21 28 29 33 30 44 43 46 48
13 13 26 25 53 57 47 16 14 28 28 52 56 55 62 60 60 52 45 21 22 11 19 32 52 42 42 27 25 26 29 28 28 25 26 25 37 41 45 31 28 34 29 28 36 40 39 44 45
11 19 9 35 42 31 13 5 10 21 42 61 64 64 57 47 58 52 36 6 14 5 23 30 29 30 50 31 27 25 27 27 27 22 18 22 29 36 39 36 36 33 34 34 37 41 41 46 48
5 9 12 7 16 5 10 11 15 14 63 72 65 61 50 33 40 32 15 21 3 13 50 53 5 38 67 30 24 28 26 19 18 16 20 25 32 38 41 44 41 35 39 38 40 44 45 49 50
11 12 11 8 15 9 10 15 7 28 63 45 57 59 51 47 29 13 12 21 6 31 45 38 42 40 52 30 18 13 11 13 17 23 24 22 27 39 42 45 43 40 43 45 47 49 49 50 55
15 6 9 4 15 11 9 13 29 30 50 45 56 58 48 51 30 2 9 10 16 22 37 31 14 29 26 11 11 12 12 16 22 24 29 32 35 39 46 48 46 50 52 53 52 54 50 53 54
15 5 5 7 5 18 7 9 17 16 34 34 38 43 35 39 17 6 12 21 23 18 18 1 11 20 19 9 9 12 15 22 29 33 35 37 40 44 47 48 51 54 51 56 57 52 51 56 55
7 7 4 3 10 19 11 15 21 23 14 11 22 27 16 18 8 9 14 15 10 15 8 12 3 2 6 12 19 20 16 26 35 35 37 40 45 44 47 50 47 48 53 54 55 51 56 52 53
6 7 9 11 22 18 3 12 6 15 7 2 23 23 14 10 17 16 14 15 6 19 22 6 14 14 15 24 23 21 18 28 31 36 39 41 42 43 47 45 46 50 52 53 50 51 56 53 47
3 10 2 11 9 5 10 21 20 14 15 9 15 7 21 32 28 19 12 4 4 11 20 7 26 23 20 26 25 22 26 32 36 41 37 30 27 28 34 38 37 38 39 41 49 49 47 47 42
12 13 6 7 10 5 5 2 14 20 22 26 43 20 27 44 20 8 4 11 20 17 21 3 10 27 26 25 25 25 30 36 38 31 24 27 33 34 32 35 43 46 49 51 42 39 43 36 42
7 3 27 10 12 13 17 11 15 14 21 16 39 35 19 15 12 6 4 13 13 23 20 22 29 26 22 26 28 29 30 39 49 47 40 43 35 40 47 49 49 46 45 46 52 50 46 44 37
5 9 16 9 5 11 12 8 11 11 9 6 15 31 22 19 13 5 7 13 18 22 20 20 16 21 25 29 35 38 40 42 39 32 29 33 39 42 46 41 37 50 50 45 48 39 36 37 44
17 15 7 10 11 6 11 14 8 13 11 3 13 27 30 25 18 18 14 7 10 19 20 25 19 24 23 25 30 26 28 28 30 35 39 41 44 46 41 41 43 40 39 40 34 35 35 40 40
9 11 9 4 4 4 11 8 6 11 28 25 27 25 18 14 18 22 23 24 23 25 23 25 24 28 24 16 21 25 23 25 29 33 38 35 35 37 37 35 34 35 34 32 33 29 26 25 26
2 13 5 12 7 8 1 7 10 14 17 19 27 30 22 23 21 19 23 23 27 27 23 25 25 27 27 24 26 29 31 38 42 43 38 34 34 28 25 27 29 27 26 24 22 19 21 23 22
14 8 7 7 5 2 7 7 8 7 7 10 12 16 25 26 27 24 23 26 26 21 27 30 33 39 33 33 37 46 41 45 46 36 34 32 34 23 23 26 22 19 21 24 23 21 22 22 20
10 6 10 9 7 9 5 7 2 10 7 10 6 5 13 21 21 20 21 24 21 27 34 33 36 42 38 36 38 39 43 44 33 34 33 30 29 26 24 26 26 27 24 25 24 25 27 27 27
1 8 8 9 4 5 6 7 6 5 9 16 1 16 25 18 11 13 24 24 21 25 24 27 31 26 26 33 36 41 44 40 30 26 28 28 28 29 28 29 28 27 26 29 31 25 32 27 37
Wind_Direction_500mb
84 62 108 100 48 61 347 315 314 126 166 212 166 163 173 157 161 214 144 166 167 169 165 163 165 163 160 153 150 148 143 135 127 123 122 119 113 104 94 84 72 61 50 46 47 42 32 28 26
44 51 91 64 72 45 301 294 243 201 158 133 142 133 138 115 124 151 153 166 168 173 167 164 168 169 167 164 161 157 150 143 140 135 129 127 118 104 86 74 64 56 50 59 49 39 31 25 22
46 26 56 88 94 191 231 331 268 106 140 130 83 66 64 153 148 150 154 157 170 177 167 168 174 175 175 172 170 166 162 158 150 144 139 134 126 114 101 80 64 50 50 48 44 43 34 32 37
330 297 76 79 342 264 226 90 225 119 133 40 136 78 76 240 139 146 149 149 167 175 168 172 179 182 185 187 187 181 178 183 172 169 159 151 139 124 108 75 61 46 38 34 35 38 36 34 32
3 17 45 42 297 216 277 173 190 153 164 182 158 110 138 150 152 149 147 148 164 165 166 180 190 193 198 201 202 205 197 205 200 195 181 169 158 139 140 87 59 47 38 21 15 14 17 17 358
18 72 53 265 264 305 310 167 175 166 161 146 127 109 142 181 170 161 155 148 159 150 167 186 190 199 207 207 213 216 216 220 224 216 200 191 183 159 144 126 68 40 19 355 356 355 351 346 351
117 88 164 255 258 323 124 163 215 167 156 158 145 108 148 166 180 173 168 175 168 168 180 199 201 200 208 212 221 227 232 236 242 228 214 211 203 196 183 175 207 350 341 325 336 338 337 334 330
311 99 150 232 209 258 192 179 202 179 165 158 160 171 180 167 167 175 186 193 187 190 202 198 206 209 216 220 222 223 231 236 244 255 239 231 224 221 223 225 235 250 291 293 309 317 323 325 327
219 82 231 214 161 221 177 183 202 190 138 160 205 180 157 169 170 188 198 207 203 207 213 204 204 205 219 220 222 232 233 240 252 263 250 246 242 240 245 249 250 246 272 279 296 309 318 319 321
146 147 222 213 173 211 191 185 184 161 158 194 186 149 152 177 182 196 206 209 212 214 215 214 212 204 220 227 231 244 247 237 292 295 269 247 268 256 251 249 251 237 262 295 299 311 318 317 320
183 203 205 222 206 206 188 195 185 148 203 198 170 164 164 179 185 200 217 223 228 222 222 230 216 211 220 229 234 244 262 248 279 284 272 270 261 255 254 254 260 260 289 291 301 310 317 321 323
273 253 229 200 199 200 192 173 188 167 206 202 189 171 170 181 190 202 212 220 223 226 224 226 227 221 227 236 247 264 272 267 284 280 278 281 227 246 259 266 277 295 300 302 302 315 324 325 321
192 287 160 189 189 201 204 187 182 190 191 200 186 176 181 191 194 202 213 217 252 296 300 257 246 240 242 255 259 249 259 269 276 275 281 262 235 248 262 269 283 293 297 299 309 320 326 329 325
296 6 117 177 187 185 135 276 182 167 186 186 188 182 186 203 199 202 204 7 75 260 278 253 265 244 254 246 282 258 256 274 274 268 268 251 243 237 263 268 280 277 295 307 318 321 323 330 327
297 177 32 75 142 107 152 295 224 186 185 187 192 189 187 196 198 196 196 256 141 3 342 278 246 226 268 240 269 278 266 264 268 261 274 275 254 259 266 271 273 287 306 305 311 315 319 328 323
38 52 46 285 162 160 132 281 38 184 180 186 197 198 199 192 185 167 281 221 72 338 9 49 236 257 270 259 278 256 249 257 265 263 271 263 279 274 279 276 267 290 297 300 303 309 314 319 319
14 353 21 53 215 118 38 326 341 173 179 185 205 205 204 201 191 101 289 298 288 350 340 4 136 240 222 266 313 269 264 263 270 270 284 297 289 282 275 274 276 287 287 289 291 296 305 309 312
285 360 353 340 39 67 98 7 4 110 175 195 220 221 209 212 214 328 292 277 298 315 318 173 194 188 199 257 301 260 263 280 278 278 290 297 297 289 272 276 280 280 281 290 293 293 301 308 310
225 150 117 248 1 70 39 34 24 55 101 154 230 234 164 195 254 247 308 270 287 355 222 225 92 305 273 290 292 250 256 270 278 283 289 296 295 291 281 285 288 287 291 287 286 295 297 296 305
105 53 359 18 75 87 10 33 316 62 66 288 256 236 162 230 192 195 242 244 115 9 15 338 242 318 307 280 286 262 271 278 282 285 284 284 284 279 278 277 283 285 285 292 293 291 292 295 298
110 99 187 123 129 82 69 25 360 12 26 1 0 220 190 188 179 164 134 52 165 14 348 316 235 285 311 301 278 277 289 291 289 284 282 287 292 294 290 285 289 291 292 297 296 296 291 302 304
53 328 324 157 120 148 28 194 11 334 43 32 28 75 148 178 186 159 152 333 323 329 329 258 314 322 298 312 308 303 314 305 293 286 279 300 315 309 299 303 307 310 311 311 303 293 300 304 299
128 112 90 58 86 93 3 74 315 347 16 3 14 52 129 155 185 337 304 352 326 320 321 306 309 331 314 322 314 310 309 304 301 308 322 329 329 322 321 321 320 321 322 315 309 303 297 293 290
80 83 50 52 75 42 316 108 333 4 315 347 37 69 97 109 135 131 311 348 354 341 333 353 329 326 317 316 319 321 316 314 323 332 335 332 326 321 316 312 317 318 317 315 312 303 298 298 295
61 56 6 17 21 194 320 63 344 346 3 89 77 91 110 116 97 67 41 6 350 7 343 344 347 336 328 319 318 330 335 340 342 338 331 320 310 306 304 305 308 315 314 308 302 304 302 297 297
33 101 138 147 153 245 356 48 314 357 49 83 107 107 105 90 82 67 61 60 59 51 35 32 21 12 10 354 352 353 352 346 339 332 325 316 312 310 312 318 324 322 325 325 311 304 308 319 312
33 46 188 102 11 65 307 92 21 9 46 79 90 87 73 78 92 89 69 54 41 22 14 19 14 18 13 11 10 6 359 353 350 343 342 346 341 343 353 349 346 354 355 1 5 344 316 314 311
95 150 32 14 113 112 332 107 182 261 317 330 56 100 84 91 85 72 50 32 25 23 23 13 13 15 10 7 7 359 353 352 352 0 358 4 12 15 8 10 10 6 353 346 343 336 328 323 322
15 27 58 113 108 147 167 269 151 200 284 301 228 69 77 99 79 60 42 31 20 14 7 8 16 16 17 7 3 3 2 0 3 8 17 21 22 21 8 0 354 355 355 348 351 342 339 324 309
56 148 126 114 288 52 127 269 207 204 287 294 252 109 104 114 97 57 31 19 11 7 2 11 18 12 15 11 8 7 5 8 11 18 24 24 22 14 9 8 9 6 3 0 1 0 352 340 337
Wind_Speed_850mb
13 14 17 7 8 10 7 9 2 9 6 8 38 8 15 4 8 6 30 44 36 42 40 35 29 25 22 19 16 16 15 16 17 20 22 25 26 28 28 29 29 30 32 35 36 36 35 29 25
19 11 11 7 10 8 9 10 7 5 11 26 19 17 7 4 7 19 44 43 39 37 34 32 29 25 22 18 15 13 14 15 16 18 20 22 23 23 24 25 27 30 33 34 38 39 37 32 28
16 19 6 9 7 2 5 4 11 9 25 9 6 13 5 8 11 44 39 31 41 34 30 29 27 24 20 16 13 12 11 11 13 14 16 18 18 19 20 21 24 28 30 29 33 39 38 34 31
12 3 13 10 5 7 4 6 9 14 7 5 14 11 7 4 38 27 35 29 34 32 28 26 23 21 17 13 11 10 10 10 11 11 13 15 15 13 15 18 19 21 24 25 24 31 34 27 21
8 8 10 7 6 7 3 27 30 14 13 8 12 5 23 10 15 32 30 25 25 26 22 21 20 18 15 13 10 11 10 10 11 11 13 14 14 10 13 11 14 14 15 17 20 23 28 32 24
3 8 8 2 4 9 11 46 32 12 21 14 16 13 11 13 26 33 25 22 26 24 20 22 20 18 17 15 14 14 14 13 14 16 19 21 16 13 13 7 6 7 8 11 15 18 29 32 37
10 8 9 7 6 10 1 30 11 20 24 13 38 8 11 28 24 26 24 25 29 21 10 15 19 19 20 19 17 15 15 16 18 21 24 25 20 16 12 8 4 1 7 11 16 20 30 35 40
5 10 12 10 8 9 4 17 27 32 22 31 28 13 14 38 32 28 25 26 27 21 17 7 17 17 20 20 21 20 20 19 19 17 20 25 22 17 17 13 9 7 8 13 16 23 31 38 45
11 8 7 14 15 13 23 16 37 18 24 22 23 21 35 40 38 34 33 37 40 32 27 18 18 20 21 25 27 25 21 17 15 18 22 24 24 28 26 23 18 14 15 17 21 30 35 42 48
11 5 18 17 17 16 27 21 33 12 35 7 25 31 46 45 41 36 36 40 42 40 34 29 22 27 26 30 31 28 22 20 15 26 28 25 33 33 31 29 24 23 20 24 30 33 43 51 49
11 13 14 20 51 44 27 17 20 32 8 29 56 48 51 53 57 49 46 37 39 43 42 35 32 32 34 34 33 32 23 26 21 24 29 38 33 32 27 23 21 20 29 28 33 37 50 48 49
4 29 21 16 44 44 23 22 13 38 27 50 54 47 56 61 63 58 52 47 50 51 52 44 47 37 33 34 27 25 26 27 27 27 33 34 30 28 26 27 21 28 29 33 30 44 43 46 48
13 13 26 25 53 57 47 16 14 28 28 52 56 55 62 60 60 52 45 21 22 11 19 32 52 42 42 27 25 26 29 28 28 25 26 25 37 41 45 31 28 34 29 28 36 40 39 44 45
11 19 9 35 42 31 13 5 10 21 42 61 64 64 57 47 58 52 36 6 14 5 23 30 29 30 50 31 27 25 27 27 27 22 18 22 29 36 39 36 36 33 34 34 37 41 41 46 48
5 9 12 7 16 5 10 11 15 14 63 72 65 61 50 33 40 32 15 21 3 13 50 53 5 38 67 30 24 28 26 19 18 16 20 25 32 38 41 44 41 35 39 38 40 44 45 49 50
11 12 11 8 15 9 10 15 7 28 63 45 57 59 51 47 29 13 12 21 6 31 45 38 42 40 52 30 18 13 11 13 17 23 24 22 27 39 42 45 43 40 43 45 47 49 49 50 55
15 6 9 4 15 11 9 13 29 30 50 45 56 58 48 51 30 2 9 10 16 22 37 31 14 29 26 11 11 12 12 16 22 24 29 32 35 39 46 48 46 50 52 53 52 54 50 53 54
15 5 5 7 5 18 7 9 17 16 34 34 38 43 35 39 17 6 12 21 23 18 18 1 11 20 19 9 9 12 15 22 29 33 35 37 40 44 47 48 51 54 51 56 57 52 51 56 55
7 7 4 3 10 19 11 15 21 23 14 11 22 27 16 18 8 9 14 15 10 15 8 12 3 2 6 12 19 20 16 26 35 35 37 40 45 44 47 50 47 48 53 54 55 51 56 52 53
6 7 9 11 22 18 3 12 6 15 7 2 23 23 14 10 17 16 14 15 6 19 22 6 14 14 15 24 23 21 18 28 31 36 39 41 42 43 47 45 46 50 52 53 50 51 56 53 47
3 10 2 11 9 5 10 21 20 14 15 9 15 7 21 32 28 19 12 4 4 11 20 7 26 23 20 26 25 22 26 32 36 41 37 30 27 28 34 38 37 38 39 41 49 49 47 47 42
12 13 6 7 10 5 5 2 14 20 22 26 43 20 27 44 20 8 4 11 20 17 21 3 10 27 26 25 25 25 30 36 38 31 24 27 33 34 32 35 43 46 49 51 42 39 43 36 42
7 3 27 10 12 13 17 11 15 14 21 16 39 35 19 15 12 6 4 13 13 23 20 22 29 26 22 26 28 29 30 39 49 47 40 43 35 40 47 49 49 46 45 46 52 50 46 44 37
5 9 16 9 5 11 12 8 11 11 9 6 15 31 22 19 13 5 7 13 18 22 20 20 16 21 25 29 35 38 40 42 39 32 29 33 39 42 46 41 37 50 50 45 48 39 36 37 44
17 15 7 10 11 6 11 14 8 13 11 3 13 27 30 25 18 18 14 7 10 19 20 25 19 24 23 25 30 26 28 28 30 35 39 41 44 46 41 41 43 40 39 40 34 35 35 40 40
9 11 9 4 4 4 11 8 6 11 28 25 27 25 18 14 18 22 23 24 23 25 23 25 24 28 24 16 21 25 23 25 29 33 38 35 35 37 37 35 34 35 34 32 33 29 26 25 26
2 13 5 12 7 8 1 7 10 14 17 19 27 30 22 23 21 19 23 23 27 27 23 25 25 27 27 24 26 29 31 38 42 43 38 34 34 28 25 27 29 27 26 24 22 19 21 23 22
14 8 7 7 5 2 7 7 8 7 7 10 12 16 25 26 27 24 23 26 26 21 27 30 33 39 33 33 37 46 41 45 46 36 34 32 34 23 23 26 22 19 21 24 23 21 22 22 20
10 6 10 9 7 9 5 7 2 10 7 10 6 5 13 21 21 20 21 24 21 27 34 33 36 42 38 36 38 39 43 44 33 34 33 30 29 26 24 26 26 27 24 25 24 25 27 27 27
1 8 8 9 4 5 6 7 6 5 9 16 1 16 25 18 11 13 24 24 21 25 24 27 31 26 26 33 36 41 44 40 30 26 28 28 28 29 28 29 28 27 26 29 31 25 32 27 37
Wind_Direction_850mb
84 62 108 100 48 61 347 315 314 126 166 212 166 163 173 157 161 214 144 166 167 169 165 163 165 163 160 153 150 148 143 135 127 123 122 119 113 104 94 84 72 61 50 46 47 42 32 28 26
44 51 91 64 72 45 301 294 243 201 158 133 142 133 138 115 124 151 153 166 168 173 167 164 168 169 167 164 161 157 150 143 140 135 129 127 118 104 86 74 64 56 50 59 49 39 31 25 22
46 26 56 88 94 191 231 331 268 106 140 130 83 66 64 153 148 150 154 157 170 177 167 168 174 175 175 172 170 166 162 158 150 144 139 134 126 114 101 80 64 50 50 48 44 43 34 32 37
330 297 76 79 342 264 226 90 225 119 133 40 136 78 76 240 139 146 149 149 167 175 168 172 179 182 185 187 187 181 178 183 172 169 159 151 139 124 108 75 61 46 38 34 35 38 36 34 32
3 17 45 42 297 216 277 173 190 153 164 182 158 110 138 150 152 149 147 148 164 165 166 180 190 193 198 201 202 205 197 205 200 195 181 169 158 139 140 87 59 47 38 21 15 14 17 17 358
18 72 53 265 264 305 310 167 175 166 161 146 127 109 142 181 170 161 155 148 159 150 167 186 190 199 207 207 213 216 216 220 224 216 200 191 183 159 144 126 68 40 19 355 356 355 351 346 351
117 88 164 255 258 323 124 163 215 167 156 158 145 108 148 166 180 173 168 175 168 168 180 199 201 200 208 212 221 227 232 236 242 228 214 211 203 196 183 175 207 350 341 325 336 338 337 334 330
311 99 150 232 209 258 192 179 202 179 165 158 160 171 180 167 167 175 186 193 187 190 202 198 206 209 216 220 222 223 231 236 244 255 239 231 224 221 223 225 235 250 291 293 309 317 323 325 327
219 82 231 214 161 221 177 183 202 190 138 160 205 180 157 169 170 188 198 207 203 207 213 204 204 205 219 220 222 232 233 240 252 263 250 246 242 240 245 249 250 246 272 279 296 309 318 319 321
146 147 222 213 173 211 191 185 184 161 158 194 186 149 152 177 182 196 206 209 212 214 215 214 212 204 220 227 231 244 247 237 292 295 269 247 268 256 251 249 251 237 262 295 299 311 318 317 320
183 203 205 222 206 206 188 195 185 148 203 198 170 164 164 179 185 200 217 223 228 222 222 230 216 211 220 229 234 244 262 248 279 284 272 270 261 255 254 254 260 260 289 291 301 310 317 321 323
273 253 229 200 199 200 192 173 188 167 206 202 189 171 170 181 190 202 212 220 223 226 224 226 227 221 227 236 247 264 272 267 284 280 278 281 227 246 259 266 277 295 300 302 302 315 324 325 321
192 287 160 189 189 201 204 187 182 190 191 200 186 176 181 191 194 202 213 217 252 296 300 257 246 240 242 255 259 249 259 269 276 275 281 262 235 248 262 269 283 293 297 299 309 320 326 329 325
296 6 117 177 187 185 135 276 182 167 186 186 188 182 186 203 199 202 204 7 75 260 278 253 265 244 254 246 282 258 256 274 274 268 268 251 243 237 263 268 280 277 295 307 318 321 323 330 327
297 177 32 75 142 107 152 295 224 186 185 187 192 189 187 196 198 196 196 256 141 3 342 278 246 226 268 240 269 278 266 264 268 261 274 275 254 259 266 271 273 287 306 305 311 315 319 328 323
38 52 46 285 162 160 132 281 38 184 180 186 197 198 199 192 185 167 281 221 72 338 9 49 236 257 270 259 278 256 249 257 265 263 271 263 279 274 279 276 267 290 297 300 303 309 314 319 319
14 353 21 53 215 118 38 326 341 173 179 185 205 205 204 201 191 101 289 298 288 350 340 4 136 240 222 266 313 269 264 263 270 270 284 297 289 282 275 274 276 287 287 289 291 296 305 309 312
285 360 353 340 39 67 98 7 4 110 175 195 220 221 209 212 214 328 292 277 298 315 318 173 194 188 199 257 301 260 263 280 278 278 290 297 297 289 272 276 280 280 281 290 293 293 301 308 310
225 150 117 248 1 70 39 34 24 55 101 154 230 234 164 195 254 247 308 270 287 355 222 225 92 305 273 290 292 250 256 270 278 283 289 296 295 291 281 285 288 287 291 287 286 295 297 296 305
105 53 359 18 75 87 10 33 316 62 66 288 256 236 162 230 192 195 242 244 115 9 15 338 242 318 307 280 286 262 271 278 282 285 284 284 284 279 278 277 283 285 285 292 293 291 292 295 298
110 99 187 123 129 82 69 25 360 12 26 1 0 220 190 188 179 164 134 52 165 14 348 316 235 285 311 301 278 277 289 291 289 284 282 287 292 294 290 285 289 291 292 297 296 296 291 302 304
53 328 324 157 120 148 28 194 11 334 43 32 28 75 148 178 186 159 152 333 323 329 329 258 314 322 298 312 308 303 314 305 293 286 279 300 315 309 299 303 307 310 311 311 303 293 300 304 299
128 112 90 58 86 93 3 74 315 347 16 3 14 52 129 155 185 337 304 352 326 320 321 306 309 331 314 322 314 310 309 304 301 308 322 329 329 322 321 321 320 321 322 315 309 303 297 293 290
80 83 50 52 75 42 316 108 333 4 315 347 37 69 97 109 135 131 311 348 354 341 333 353 329 326 317 316 319 321 316 314 323 332 335 332 326 321 316 312 317 318 317 315 312 303 298 298 295
61 56 6 17 21 194 320 63 344 346 3 89 77 91 110 116 97 67 41 6 350 7 343 344 347 336 328 319 318 330 335 340 342 338 331 320 310 306 304 305 308 315 314 308 302 304 302 297 297
33 101 138 147 153 245 356 48 314 357 49 83 107 107 105 90 82 67 61 60 59 51 35 32 21 12 10 354 352 353 352 346 339 332 325 316 312 310 312 318 324 322 325 325 311 304 308 319 312
33 46 188 102 11 65 307 92 21 9 46 79 90 87 73 78 92 89 69 54 41 22 14 19 14 18 13 11 10 6 359 353 350 343 342 346 341 343 353 349 346 354 355 1 5 344 316 314 311
95 150 32 14 113 112 332 107 182 261 317 330 56 100 84 91 85 72 50 32 25 23 23 13 13 15 10 7 7 359 353 352 352 0 358 4 12 15 8 10 10 6 353 346 343 336 328 323 322
15 27 58 113 108 147 167 269 151 200 284 301 228 69 77 99 79 60 42 31 20 14 7 8 16 16 17 7 3 3 2 0 3 8 17 21 22 21 8 0 354 355 355 348 351 342 339 324 309
56 148 126 114 288 52 127 269 207 204 287 294 252 109 104 114 97 57 31 19 11 7 2 11 18 12 15 11 8 7 5 8 11 18 24 24 22 14 9 8 9 6 3 0 1 0 352 340 337